Location: Hokitika
(42.7170°S, 170.9670°E)
Time: 12:30:04
(UTC+13:00)

ISS - Visible Passes

Search period start: 22 October 2019 00:00
Search period end: 01 November 2019 00:00
Orbit: 411 x 421 km, 51.6° (Epoch: 21 October)

Date Brightness Start Highest point End Pass type
(mag) Time Alt. Az. Time Alt. Az. Time Alt. Az.
22 Oct -1.9 21:46:42 10° W 21:49:47 31° SSW 21:52:54 10° SE visible
22 Oct -0.6 23:24:49 10° SW 23:26:03 15° SSW 23:26:03 15° SSW visible
23 Oct -2.5 20:57:49 10° W 21:01:06 44° SSW 21:04:24 10° SE visible
23 Oct -1.2 22:35:55 10° SW 22:38:28 19° S 22:39:40 16° SSE visible
24 Oct -1.3 21:46:57 10° WSW 21:49:40 21° SSW 21:52:23 10° SE visible
24 Oct -0.7 23:24:41 10° SW 23:26:02 16° SSW 23:26:02 16° SSW visible
25 Oct -1.6 20:57:57 10° WSW 21:00:52 25° SSW 21:03:47 10° SE visible
25 Oct -1.3 22:35:58 10° SW 22:38:26 18° S 22:39:23 16° SSE visible
26 Oct -1.1 21:47:08 10° SW 21:49:35 18° S 21:52:03 10° SE visible
26 Oct -0.9 23:24:11 10° SW 23:25:33 18° SSW 23:25:33 18° SSW visible
27 Oct -1.2 20:58:11 10° SW 21:00:44 19° S 21:03:17 10° SE visible
27 Oct -1.6 22:35:36 10° SW 22:38:20 22° SSE 22:38:46 21° SSE visible
28 Oct -1.3 21:46:56 10° SW 21:49:29 19° S 21:51:57 10° SE visible
28 Oct -1.1 23:23:31 10° SW 23:24:50 21° SW 23:24:50 21° SW visible
29 Oct -1.3 20:58:10 10° SW 21:00:37 18° S 21:03:03 10° SE visible
29 Oct -2.3 22:34:58 10° SW 22:38:00 32° SSE 22:38:00 32° SSE visible
30 Oct -1.9 21:46:22 10° SW 21:49:16 25° SSE 21:51:10 16° ESE visible
30 Oct -1.1 23:22:53 10° WSW 23:24:03 20° WSW 23:24:03 20° WSW visible
31 Oct -1.6 20:57:44 10° SW 21:00:25 21° SSE 21:03:06 10° ESE visible
31 Oct -3.2 22:34:14 10° SW 22:37:13 57° SSW 22:37:13 57° SSW visible
